Location: Battersea Observatory
(44.4318°N, 76.3841°W)
Time: 21:43:35
(UTC-04:00)

Tiros 1 despin weight - Pass Details

Date: 29 January 2022
Orbit: 592 x 639 km, 48.2° (Epoch: 25 May)

Event Time Altitude Azimuth Distance (km) Brightness Sun altitude
Rises 17:12:09 0° 266° (W) 2,869 ? -1.1°
Reaches altitude 10° 17:14:29 10° 271° (W) 1,974 ? -1.4°
Maximum altitude 17:18:57 58° 351° (N) 731 ? -2.2°
Drops below altitude 10° 17:23:30 10° 70° (ENE) 2,001 ? -2.9°
Enters shadow 17:24:57 - 73° (ENE) 2,560 ? -3.2°
Sets 17:25:54 0° 75° (ENE) 2,923 - -3.3°
